FW8622 Weather Reports


Display with metric or nautical units.
time (UTC)temp
F
wind
direction
speed
MPH
gust
MPH
rain 1hr
in
rain 24hr
in
rain mn
in
humidity
%
barometer
mb
20260505041556 49 0 0.0 2.0 0.00 0.00 0.00 89 1013.6
20260505041047 49 0 0.0 1.0 0.00 0.00 0.00 89 1013.6
20260505040547 49 0 0.0 1.0 0.00 0.00 0.00 89 1013.7
20260505035619 50 0 0.0 1.0 0.00 0.00 0.00 89 1013.8
20260505035047 50 0 0.0 1.0 0.00 0.00 0.00 89 1013.7
20260505034611 50 0 0.0 2.0 0.00 0.00 0.00 89 1013.8
20260505034045 50 0 0.0 2.0 0.00 0.00 0.00 89 1013.6
20260505033545 50 0 0.0 2.0 0.00 0.00 0.00 89 1013.7
20260505033051 50 0 0.0 1.0 0.00 0.00 0.00 89 1013.7
20260505032545 50 0 0.0 0.0 0.00 0.00 0.00 89 1013.7
20260505032046 50 0 0.0 1.0 0.00 0.00 0.00 89 1013.5
20260505031548 50 0 0.0 2.0 0.00 0.00 0.00 88 1013.5
20260505031046 50 0 0.0 2.0 0.00 0.00 0.00 88 1013.6
20260505030550 50 84 0.0 3.0 0.00 0.00 0.00 88 1013.5
20260505030101 50 0 0.0 3.0 0.00 0.00 0.00 88 1013.7
20260505025544 50 82 0.0 3.0 0.00 0.00 0.00 88 1013.5
20260505025045 50 0 0.0 3.0 0.00 0.00 0.00 88 1013.6
20260505024606 50 0 0.0 3.0 0.00 0.00 0.00 88 1013.7
20260505024045 50 0 0.0 1.0 0.00 0.00 0.00 89 1013.7
20260505023545 50 0 0.0 3.0 0.00 0.00 0.00 89 1013.8
20260505023054 50 0 0.0 3.0 0.00 0.00 0.00 89 1013.8
20260505022545 50 0 0.0 3.0 0.00 0.00 0.00 89 1013.9
20260505022045 50 0 0.0 1.0 0.00 0.00 0.00 89 1013.8
20260505021550 50 0 0.0 1.0 0.00 0.00 0.00 89 1013.8
20260505021044 50 0 0.0 3.0 0.00 0.00 0.00 89 1014.0
20260505020544 50 0 0.0 3.0 0.00 0.00 0.00 89 1013.9
20260505020104 50 0 0.0 2.0 0.00 0.00 0.00 89 1014.0
20260505015545 50 0 0.0 3.0 0.00 0.00 0.00 89 1014.0
20260505015048 50 0 0.0 3.0 0.00 0.00 0.00 89 1014.0
20260505014548 51 0 0.0 3.0 0.00 0.00 0.00 89 1014.0
20260505014044 51 0 0.0 4.0 0.00 0.00 0.00 88 1014.1
20260505013545 51 0 0.0 4.0 0.00 0.00 0.00 88 1014.1
20260505013054 51 0 0.0 3.0 0.00 0.00 0.00 89 1014.2
20260505012546 51 0 0.0 1.0 0.00 0.00 0.00 89 1014.2
20260505012044 51 318 0.0 2.0 0.00 0.00 0.00 89 1014.2
20260505011550 51 0 0.0 2.0 0.00 0.00 0.00 88 1014.2
20260505011047 51 0 0.0 2.0 0.00 0.00 0.00 88 1014.3
20260505010545 51 0 0.0 2.0 0.00 0.00 0.00 88 1014.4
20260505010107 51 0 0.0 2.0 0.00 0.00 0.00 88 1014.3
20260505005544 51 0 0.0 1.0 0.00 0.00 0.00 88 1014.4
20260505005045 51 0 0.0 3.0 0.00 0.00 0.00 88 1014.4
20260505004605 51 0 0.0 3.0 0.00 0.00 0.00 88 1014.5
20260505004047 51 0 0.0 2.0 0.00 0.00 0.00 88 1014.5
20260505003548 51 0 0.0 2.0 0.00 0.00 0.00 88 1014.6
20260505003100 51 0 0.0 2.0 0.00 0.00 0.00 88 1014.6
20260505002547 51 289 0.0 2.0 0.00 0.00 0.00 88 1014.5
20260505002047 51 0 0.0 2.0 0.00 0.00 0.00 88 1014.6
20260505001555 51 0 0.0 3.0 0.00 0.00 0.00 88 1014.7
20260505001047 51 0 0.0 3.0 0.00 0.00 0.00 88 1014.6
20260505000548 51 0 0.0 3.0 0.00 0.00 0.00 88 1014.5
20260505000111 51 0 0.0 3.0 0.00 0.00 0.00 88 1014.7
20260504235548 52 302 0.0 2.0 0.00 0.00 0.00 88 1014.7
20260504235048 52 0 0.0 3.0 0.00 0.00 0.00 88 1014.7
20260504234555 52 0 0.0 3.0 0.00 0.00 0.00 88 1014.7
20260504234045 52 0 0.0 4.0 0.00 0.00 0.00 88 1014.7
20260504233548 52 0 0.0 4.0 0.00 0.00 0.00 88 1014.9
20260504233051 52 0 0.0 2.0 0.00 0.00 0.00 88 1014.9
20260504232546 52 0 0.0 2.0 0.00 0.00 0.00 88 1014.9
20260504232045 52 0 0.0 2.0 0.00 0.00 0.00 88 1014.9
20260504231622 52 0 0.0 2.0 0.00 0.00 0.00 88 1014.9
20260504231048 52 0 0.0 2.0 0.00 0.00 0.00 88 1015.0
20260504230547 52 0 0.0 2.0 0.00 0.00 0.00 88 1014.8
20260504230053 52 0 0.0 2.0 0.00 0.00 0.00 87 1014.8
20260504225547 52 0 0.0 2.0 0.00 0.00 0.00 88 1014.9
20260504225051 53 0 0.0 3.0 0.00 0.00 0.00 88 1015.0
20260504224554 53 0 0.0 3.0 0.00 0.00 0.00 88 1015.0
20260504224048 53 0 0.0 3.0 0.00 0.00 0.00 88 1014.9
20260504223547 53 0 0.0 2.0 0.00 0.00 0.00 88 1015.0
20260504223054 53 0 0.0 2.0 0.00 0.00 0.00 88 1014.9
20260504222545 53 0 0.0 1.0 0.00 0.00 0.00 88 1015.1
20260504222048 53 0 0.0 2.0 0.00 0.00 0.00 88 1015.1
20260504221632 53 0 0.0 3.0 0.00 0.00 0.00 88 1015.0
20260504221045 53 309 0.0 3.0 0.00 0.00 0.00 88 1015.1
20260504220545 54 289 0.0 1.0 0.00 0.00 0.00 88 1015.2
20260504220057 54 0 0.0 1.0 0.00 0.00 0.00 88 1015.2
20260504215546 54 0 0.0 1.0 0.00 0.00 0.00 88 1015.2
20260504215047 54 0 0.0 2.0 0.00 0.00 0.00 88 1015.2
20260504214550 54 0 0.0 2.0 0.00 0.00 0.00 88 1015.3
20260504214046 54 0 0.0 2.0 0.00 0.00 0.00 88 1015.3
20260504213544 54 0 0.0 2.0 0.00 0.00 0.00 88 1015.4
20260504213059 54 0 0.0 2.0 0.00 0.00 0.00 88 1015.3
20260504212545 54 0 0.0 2.0 0.00 0.00 0.00 88 1015.4
20260504212044 54 313 0.0 2.0 0.00 0.00 0.00 88 1015.4
20260504211550 54 0 0.0 2.0 0.00 0.00 0.00 88 1015.4
20260504211044 54 0 0.0 2.0 0.00 0.00 0.00 88 1015.4
20260504210544 54 0 0.0 3.0 0.00 0.00 0.00 88 1015.4
20260504210051 54 0 0.0 3.0 0.00 0.00 0.00 88 1015.4
20260504205544 54 0 0.0 3.0 0.00 0.00 0.00 88 1015.4
20260504205044 55 0 0.0 3.0 0.00 0.00 0.00 88 1015.4
20260504204552 55 0 0.0 2.0 0.00 0.00 0.00 88 1015.4
20260504204045 55 0 0.0 3.0 0.00 0.00 0.00 89 1015.4
20260504203544 55 0 0.0 3.0 0.00 0.00 0.00 88 1015.3
20260504203049 55 302 0.0 3.0 0.00 0.00 0.00 89 1015.3
20260504202544 55 0 0.0 3.0 0.00 0.00 0.00 89 1015.4
20260504202045 55 0 0.0 3.0 0.00 0.00 0.00 89 1015.4
20260504201555 55 0 1.0 3.0 0.00 0.00 0.00 88 1015.2
20260504201043 55 0 0.0 2.0 0.00 0.00 0.00 88 1015.3
20260504200547 55 0 0.0 3.0 0.00 0.00 0.00 88 1015.3
20260504200051 55 0 0.0 3.0 0.00 0.00 0.00 88 1015.2
20260504195544 56 0 0.0 3.0 0.00 0.00 0.00 88 1015.2
20260504195047 56 0 0.0 3.0 0.00 0.00 0.00 88 1015.0
20260504194556 56 0 0.0 1.0 0.00 0.00 0.00 88 1014.8
20260504194047 56 0 0.0 4.0 0.00 0.00 0.00 88 1014.8
20260504193547 56 0 0.0 4.0 0.00 0.00 0.00 88 1014.7
20260504193053 56 0 0.0 2.0 0.00 0.00 0.00 88 1014.8
20260504192547 56 0 0.0 2.0 0.00 0.00 0.00 88 1014.7
20260504192048 56 301 0.0 2.0 0.00 0.00 0.00 88 1014.7
20260504191613 57 315 0.0 4.0 0.00 0.00 0.00 88 1014.7
20260504191044 57 0 0.0 4.0 0.00 0.00 0.00 88 1014.7
20260504190547 57 0 0.0 3.0 0.00 0.00 0.00 88 1014.6
20260504190049 57 0 0.0 1.0 0.00 0.00 0.00 88 1014.6
20260504185546 57 0 0.0 3.0 0.00 0.00 0.00 88 1014.7
20260504185043 57 0 0.0 3.0 0.00 0.00 0.00 87 1014.5
20260504184556 57 0 0.0 3.0 0.00 0.00 0.00 87 1014.5
20260504184047 57 0 0.0 3.0 0.00 0.00 0.00 87 1014.5
20260504183547 57 303 0.0 3.0 0.00 0.00 0.00 87 1014.5
20260504183054 57 301 0.0 4.0 0.00 0.00 0.00 87 1014.6
20260504182548 57 0 0.0 4.0 0.00 0.00 0.00 87 1014.5
20260504182047 58 0 0.0 3.0 0.00 0.00 0.00 87 1014.5
20260504181556 58 0 0.0 3.0 0.00 0.00 0.00 87 1014.4
20260504181045 58 297 0.0 3.0 0.00 0.00 0.00 87 1014.5
20260504180547 58 295 0.0 3.0 0.00 0.00 0.00 87 1014.5
20260504180055 58 305 0.0 3.0 0.00 0.00 0.00 87 1014.4
20260504175546 58 0 0.0 3.0 0.00 0.00 0.00 87 1014.5
20260504175048 58 320 0.0 5.0 0.00 0.00 0.00 87 1014.6
20260504174552 58 0 1.0 5.0 0.00 0.00 0.00 87 1014.6
20260504174048 58 280 0.0 4.0 0.00 0.00 0.00 87 1014.5
20260504173548 58 0 0.0 4.0 0.00 0.00 0.00 87 1014.6
20260504173054 59 305 0.0 4.0 0.00 0.00 0.00 87 1014.4
20260504172547 59 0 0.0 4.0 0.00 0.00 0.00 87 1014.5
20260504172047 59 0 1.0 4.0 0.00 0.00 0.00 87 1014.6
20260504171558 59 313 0.0 7.0 0.00 0.00 0.00 87 1014.6
20260504171045 59 0 0.0 7.0 0.00 0.00 0.00 86 1014.6
20260504170548 59 335 1.0 6.0 0.00 0.00 0.00 86 1014.5
20260504151047 63 287 0.0 3.0 0.00 0.00 0.00 82 1014.5
20260504150547 62 313 0.0 3.0 0.00 0.00 0.00 83 1014.4
20260504141049 64 0 0.0 3.0 0.00 0.00 0.00 81 1014.6
20260504140546 64 303 0.0 4.0 0.00 0.00 0.00 81 1014.6
20260504140105 64 0 0.0 4.0 0.00 0.00 0.00 80 1014.6
20260504130547 64 0 0.0 4.0 0.00 0.03 0.00 81 1014.8
20260504110547 63 0 0.0 0.0 0.00 0.11 0.00 84 1014.7
20260504100545 59 0 0.0 0.0 0.00 0.12 0.00 95 1014.9
20260504081552 56 0 0.0 0.0 0.00 0.12 0.00 98 1014.5
20260504081044 56 0 0.0 0.0 0.00 0.12 0.00 98 1014.6
20260504080545 55 0 0.0 0.0 0.00 0.12 0.00 98 1014.5
20260504060109 55 0 0.0 0.0 0.00 0.12 0.00 97 1013.6
20260504050545 55 0 0.0 1.0 0.00 0.12 0.00 97 1013.3
20260504045544 55 0 0.0 1.0 0.00 0.12 0.00 97 1013.2
20260504045046 55 0 0.0 0.0 0.00 0.12 0.00 97 1013.2